Regional Weather Roundup
Issued by NWS Green Bay, WI

Home | Current Version | Previous Version | Graphics & Text | Print | Product List | Glossary Off
Versions: 1 2 3 4 5 6 7 8 9 10 11 12 13 14 15 16 17 18 19 20 21 22 23 24 25 26 27 28 29 30 31 32 33 34 35 36 37 38 39 40 41 42 43 44 45 46 47 48 49 50

040
ASUS43 KGRB 201711
RWRGRB

NORTH-CENTRAL AND NORTHEAST WISCONSIN REGIONAL WEATHER ROUNDUP
NATIONAL WEATHER SERVICE GREEN BAY WI
1200 PM CDT SUN AUG 20 2017

WIZ005-009-010>012-018-019-201800-
NORTH CENTRAL WISCONSIN

CITY           SKY/WX    TMP DP  RH WIND       PRES   REMARKS
IRONWOOD       MOSUNNY   78  65  63 S13G20    29.89S
MANITOWISH WTR PTSUNNY   76  67  72 SW16      29.94S
ARBOR VITAE    MOSUNNY   77  66  69 SW14      29.95S
EAGLE RIVER    MOSUNNY   75  61  61 SW9G20    29.95F
LAND O LAKES   SUNNY     76  61  60 S13G18    29.97S
RHINELANDER    MOSUNNY   76  65  68 SW18G24   29.98F
PHILLIPS       SUNNY     76  67  72 SW10G18   29.94F
ANTIGO         CLOUDY    73  64  71 SW13      30.01F
TOMAHAWK         N/A     76  64  66 S6        29.97F
MERRILL        CLOUDY    75  64  69 S10G17    29.98F
$$

WIZ013-073-201800-
NORTHEAST WISCONSIN

CITY           SKY/WX    TMP DP  RH WIND       PRES   REMARKS
IRON MOUNTAIN  MOSUNNY   78  60  53 SW12G23   29.96F
MARINETTE      CLOUDY    77  65  66 SW9       30.00F
OCONTO         CLOUDY    78  65  65 SW8       29.99F
$$

WIZ017-030-035>037-045-201800-
CENTRAL WISCONSIN

CITY           SKY/WX    TMP DP  RH WIND       PRES   REMARKS
MEDFORD        CLOUDY    73  65  76 S12       29.98S
WAUSAU         CLOUDY    75  64  68 S10       29.97F
MOSINEE        CLOUDY    73  66  78 S10       30.01S
MARSHFIELD     PTSUNNY   75  64  68 S10       29.99F
WISC RAPIDS    CLOUDY    76  65  68 SW12      30.01F
STEVENS POINT  CLOUDY    76  64  66 SW13G20   30.00F
WAUPACA        PTSUNNY   80  65  61 S9        30.01F
SHAWANO        CLOUDY    78  64  61 SW6       30.00F
CLINTONVILLE   MOSUNNY   77  61  57 S10       30.00F
WAUTOMA        PTSUNNY   77  66  68 S8        30.01F
$$

WIZ038-039-048-051-201800-
FOX VALLEY

CITY           SKY/WX    TMP DP  RH WIND       PRES   REMARKS
NWS GREEN BAY  MOSUNNY   76  66  71 SW10      30.01F
APPLETON       PTSUNNY   75  59  57 SW14      30.01S
OSHKOSH        CLOUDY    76  64  66 S12       30.02F
FOND DU LAC    CLOUDY    77  63  61 SW9       30.03S
$$

WIZ022-050-052-201800-
EAST CENTRAL WISCONSIN

CITY           SKY/WX    TMP DP  RH WIND       PRES   REMARKS
EPHRAIM        FAIR      75  64  68 SW8       30.00F
WASHINGTON ISL FAIR      74  64  71 SW13      30.00S
STURGEON BAY   CLOUDY    76  64  66 S14       30.01F
MANITOWOC      MOSUNNY   78  62  57 S12       30.02F
SHEBOYGAN      MOSUNNY   79  65  62 SW9       30.03F
$$

LMZ563-521-522-541>543-201800-
LAKESHORE

STATION/POSITION TIME  TEMP    WIND        PRES    VSBY  WAVE
                       AIR SEA DIR/SP/G                  HT/PER
                 (UTC) (F)     (DEG/KT/KT) (MB)    (MI)  (FT/S)
SHEBOYGAN LKSHOR 1700   70     170/ 13/ 14 1016.5
KEWAUNEE LKSHORE 1642   68     180/  9/ 11 1015.8F
NORTHPORT PIER   1640   77     210/  6/ 10 1015.6S
N MID LAKE BUOY  1650   68 67  190/ 14/ 16 1016.4R         2/ 4
S GREEN BAY BUOY 1700   73 71  210/ 10/ 12 1015.9
SISTER BAY LKSHO 1618   77     240/ 12/ 16   N/A
MENOMINEE LKSHOR 1642   74     170/  9/ 12 1015.6F
$$




USA.gov is the U.S. government's official web portal to all federal, state and local government web resources and services.